C/2005 N1 (Juels-Holvorcem)

Epoch 2005 Aug. 18.0 TT = JDT 2453600.5  

T 2005 Aug. 22.04060 TT                                 Nakano

q   1.1254423            (2000.0)            P               Q

z  +0.0013823      Peri.   80.04467     +0.13770154     -0.98949409

 +/-0.0000027      Node     3.24055     +0.26929353     -0.00538908

e   0.9984443      Incl.   51.18028     +0.95316278     +0.14447281

From 222 observations 2005 July 3-2006 Mar. 25, mean residual 0".54.

   (1/a)org.= +0.001275, (1/a)fut.= +0.001801 (+/-0.000003), Q= 7.

Residuals in seconds of arc 

2005/                     050807 A01  0.7+  0.1+    051216 349  0.1+  0.4-  

050630 678 (2.5-  4.8+)   050807 A01  1.6+  0.4-    051216 349  0.1-  0.1-  

050630 678 (3.9+  3.3+)   050807 J95  0.1+  0.0     051222 349  0.6+  0.1+  

050630 678 (5.8-  1.6-)   050807 J95  0.3+  0.0     051222 349  0.4+  0.2+  

050701 678 (5.7-  4.0+)   050807 J95  0.2+  0.2-    051222 349  0.3+  0.4+  

050701 678 (0.1-  3.2+)   050818 A32  0.2+  0.2+    051230 703 (3.0-  4.1+) 

050702 678 (3.6+  2.3+)   050818 A32  0.2-  0.4+    051230 703 (3.9-  5.6+) 

050702 678 (4.5-  4.6+)   050818 A32  0.1+  0.1+    051230 703 (4.0-  3.7+) 

050702 678 (5.6+  9.3+)   050818 A32  0.0   0.1+    051230 703 (3.9-  5.3+) 

050703 204  0.1+  0.2-    050819 349  0.0   0.1+    2006/                   

050703 204  0.1+  0.2-    050819 349  0.3-  0.0     060105 349  0.5+  0.7-  

050703 204  0.1+  0.2-    050821 232  1.2+  0.1+    060105 349  0.4+  0.8-  

050703 204  0.3+  0.0     050821 232  0.1+  0.8+    060105 349  0.3+  1.1-  

050703 H06  0.4+  0.5-    050821 232  0.5-  1.5+    060109 703 (2.2-  4.3+) 

050703 H06  0.4+  0.1-    050825 213  0.1-  0.2+    060109 703 (2.5-  2.0+) 

050703 H06  0.6-  0.3-    050825 213  0.0   0.4+    060109 703 (3.7-  4.5+) 

050703 H06  0.6+  0.2+    050825 213  0.1-  0.8+    060109 703 (3.4-  3.5+) 

050703 854  1.1-  0.2-    050831 349  0.1-  0.5-    060111 349  0.0   0.3+  

050703 854  0.9-  0.4-    050831 349  0.4-  0.7-    060111 349  0.1-  0.2+  

050703 854  1.1-  0.3-    050901 349  1.1-  0.2+    060111 349  0.1-  0.1-  

050703 854  0.9-  0.0     050901 349  0.7-  0.4+    060123 918  0.4+  1.4-  

050703 678  1.1+  1.3-    050903 232  0.2-  1.4-    060123 918  0.1-  0.2-  

050703 678 (0.9+  4.8+)   050903 232  1.2-  0.3-    060123 918  0.9-  0.4-  

050703 678 (2.0-  1.5+)   050903 232  0.2-  0.2-    060123 918  0.0   0.3-  

050704 H06  0.3-  0.6-    050907 349  0.2-  0.4+    060123 918  0.1+  0.1-  

050704 H06  0.2-  0.4-    050907 349  0.1-  0.4+    060125 349  0.3+  0.3-  

050704 673  0.3+  0.5-    050907 349  0.0   0.5+    060125 349  0.1+  0.4-  

050704 673  0.4+  0.2-    050911 232 (2.2-  0.2-)   060125 349  0.0   0.5-  

050704 673  0.1+  0.1-    050911 232  1.1-  0.7+    060127 704  0.8+  0.1-  

050704 673  0.2+  0.1-    050911 232  0.4-  0.0     060127 704  0.4+  0.7-  

050706 372  0.1-  0.1+    050916 349  0.1+  0.3+    060127 704  0.5-  0.1+  

050706 349  0.4+  0.1+    050916 349  0.0   0.3+    060127 704  0.6-  0.3-  

050706 349  0.3+  0.2-    050916 349  0.1-  0.2+    060128 D83  0.1+  0.5+  

050706 349  0.2-  0.2-    050917 349  0.1+  0.0     060128 D83  1.5-  0.1-  

050707 157  0.1-  0.0     050917 349  0.1+  0.4-    060128 D83  1.2-  0.3-  

050707 157  0.7-  0.6+    050917 349  0.3+  0.3-    060128 D83  0.4-  0.0   

050707 G99  0.8+  0.8+    050918 349  0.4+  0.3-    060203 349  0.8+  0.6-  

050707 G99  0.5+  0.6+    050918 349  0.2+  0.0     060203 349  0.8+  0.6-  

050707 G99  0.6+  0.5+    050918 349  0.0   0.1+    060203 349  0.5+  0.6-  

050707 G99  0.8+  0.6+    050930 349  0.3+  0.6+    060207 349  0.9-  0.1-  

050707 G99  0.8+  0.2+    050930 349  0.1+  0.0     060207 349  0.7-  0.2+  

050712 J76  0.2+  0.2-    050930 349  0.4+  0.3-    060209 644  0.1+  0.1-  

050712 J76  0.4+  0.2-    051024 349  0.5+  0.3+    060209 644  0.1+  0.1-  

050712 J76  0.3+  0.2-    051024 349  0.5+  0.2+    060209 644  0.5+  0.0   

050713 A32  0.5-  0.6+    051024 349  0.4+  0.2+    060210 349  0.0   0.2-  

050713 A32  0.2-  0.5+    051031 215  0.4-  0.1+    060210 349  0.3-  0.2-  

050713 A32  0.4-  0.3+    051031 215  0.1+  0.2+    060210 349  0.3-  0.1-  

050713 A32  0.4-  0.2+    051031 349  0.5+  0.3+    060212 204  0.1-  0.0   

050714 372  0.6+  0.3+    051031 349  0.7+  0.1+    060212 204 (1.0-  2.7+) 

050714 372  0.5-  0.5+    051031 349  0.5+  0.1+    060226 H42  1.4-  0.2+  

050714 372  0.3-  1.1+    051110 349  0.5+  0.2-    060226 H42  1.7-  0.0   

050714 372  0.2+  0.4+    051110 349  0.5+  0.3-    060226 H42  0.3-  1.1-  

050714 247  1.3+  0.2+    051110 349  0.7+  0.0     060226 704  0.7-  0.0   

050716 213  0.6+  0.0     051112 D83  0.2-  0.1-    060226 704  1.0-  0.2+  

050716 213  0.3-  0.3+    051112 D83  0.4-  0.7+    060226 704  0.8+  1.3-  

050716 213  0.3-  0.3+    051112 D83  0.2+  0.1-    060228 704  0.6+  0.8+  

050716 372  1.2-  0.6-    051112 D83  0.6+  0.5+    060228 704  0.3+  0.1+  

050717 349  0.5+  0.2+    051112 349  0.0   0.5+    060228 704  0.1+  0.4-  

050717 349  0.7+  0.6+    051112 349  0.2+  0.3+    060228 704  0.8+  0.5+  

050717 349  0.5+  0.3+    051112 349  0.0   0.2+    060228 704  1.1-  0.3-  

050721 J95  0.2-  0.0     051118 349  0.2+  0.8+    060303 349  0.4-  0.2+  

050721 J95  0.1-  0.0     051118 349  0.6+  0.4+    060303 349  0.6-  0.4+  

050721 J95  0.1-  0.1+    051118 349  0.7+  0.4+    060303 349  0.8-  0.5+  

050721 349  0.2+  0.5-    051122 349  0.3+  0.0     060304 H42  0.2+  0.2-  

050721 349  0.7+  0.4-    051122 349  0.8+  0.1-    060304 H42  0.2-  0.1-  

050721 349  0.5+  0.3-    051122 349  0.6+  0.0     060304 H42 (0.3-  3.3-) 

050727 213  0.3+  0.1+    051125 349  1.0+  0.1-    060305 415  0.3+  0.3-  

050727 213  0.0   0.2+    051125 349  0.7+  0.2-    060305 415  0.3+  0.0   

050727 213  0.1+  0.2-    051125 349  1.0+  0.2-    060307 415  0.0   0.1-  

050727 349  0.9-  1.3-    051130 703  0.2-  0.8-    060307 415  0.1-  0.1-  

050727 349  1.0-  1.3-    051130 703  0.7-  0.9-    060308 704  1.2+  1.3+  

050727 349  1.1-  0.7-    051130 703  0.7-  0.6-    060308 704  1.2+  0.4+  

050804 349  0.6-  0.3-    051130 703  1.3-  0.4-    060308 704  0.9+  0.5+  

050804 349  0.2-  0.2-    051204 349  0.3+  0.3+    060311 H06  0.2+  0.1-  

050804 349  0.2+  0.2-    051204 349  0.4+  0.4+    060312 130  0.1-  0.3+  

050805 D83  0.0   1.4-    051204 349  0.3+  0.5+    060312 130  0.5+  1.4+  

050805 D83  0.3+  0.1-    051209 349  0.0   0.1-    060323 H42 (4.9+  4.4-) 

050805 D83  0.4-  0.4-    051209 349  0.0   0.1+    060323 H42  1.0-  1.2+  

050805 D83  0.3+  0.1-    051209 349  0.3-  0.1+    060323 H42 (2.5-  0.1-) 

050806 232  0.5+  0.1+    051210 232  0.9-  0.7+    060325 H06  1.9-  0.5+  

050806 232  0.3+  0.3-    051210 232  0.8-  0.1+    060325 H06  1.1+  0.0   

050806 232  0.4-  0.1-    051210 232  1.2-  0.5-    060402 349 (2.7+  2.4+) 

050807 A01  0.4+  0.3+    051216 349  0.2+  0.3-    060402 349 (2.0+  2.2+) 



NAKANO

         **** Don't distribute anyone except personal use only ****

                (C) Copyright 2006 OAA/ComputingSection

write mail from CFAD0::NAKANO on 2006-11-04 04:16:29(JST).

 



    C/2005 N1 (Juels-Holvorcem)

Epoch 2005 Aug. 18.0 TT = JDT 2453600.5  

T 2005 Aug. 22.04059 TT                                 Nakano

q   1.1254422            (2000.0)            P               Q

z  +0.0013833      Peri.   80.04466     +0.13770190     -0.98949405

 +/-0.0000027      Node     3.24054     +0.26929345     -0.00538885

e   0.9984432      Incl.   51.18029     +0.95316275     +0.14447312

From 220 observations 2005 July 3-2006 Mar. 25, mean residual 0".53.

   (1/a)org.= +0.001276, (1/a)fut.= +0.001802 (+/-0.000003), Q= 7.



NAKANO

         **** Don't distribute anyone except personal use only ****

                (C) Copyright 2006 OAA/ComputingSection

write mail from CFAD0::NAKANO on 2006-04-06 06:07:49(JST).

 



    C/2005 N1 (Juels-Holvorcem)

Epoch 2005 Aug. 18.0 TT = JDT 2453600.5  

T 2005 Aug. 22.04062 TT                                 Nakano

q   1.1254417            (2000.0)            P               Q

z  +0.0013920      Peri.   80.04461     +0.13770250     -0.98949396

 +/-0.0000082      Node     3.24055     +0.26929316     -0.00538900

e   0.9984334      Incl.   51.18031     +0.95316274     +0.14447377

From 144 observations 2005 July 3-Nov. 30, mean residual 0".50.

   (1/a)org.= +0.001285, (1/a)fut.= +0.001811 (+/-0.000008), Q= 6.



NAKANO

         **** Don't distribute anyone except personal use only ****

                (C) Copyright 2005 OAA/ComputingSection

write mail from CFAD0::NAKANO on 2005-12-08 01:42:10(JST).

 

    C/2005 N1 (Juels-Holvorcem)

Epoch 2005 Aug. 18.0 TT = JDT 2453600.5  

T 2005 Aug. 22.04070 TT                                 Nakano

q   1.1254385            (2000.0)            P               Q

z  +0.0014094      Peri.   80.04472     +0.13770272     -0.98949403

 +/-0.0000270      Node     3.24037     +0.26929250     -0.00538665

e   0.9984138      Incl.   51.18032     +0.95316290     +0.14447332

From 113 observations 2005 July 3-Sept. 30, mean residual 0".50.

   (1/a)org.= +0.001302, (1/a)fut.= +0.001828 (+/-0.000027), Q= 5.



NAKANO

         **** Don't distribute anyone except personal use only ****

                (C) Copyright 2005 OAA/ComputingSection

write mail from CFAD0::NAKANO on 2005-11-03 23:39:18(JST).

 

    C/2005 N1 (Juels-Holvorcem)

Epoch 2005 Aug. 18.0 TT = JDT 2453600.5  

T 2005 Aug. 22.04073 TT                                 Nakano

q   1.1254370            (2000.0)            P               Q

z  +0.0014179      Peri.   80.04476     +0.13770305     -0.98949404

 +/-0.0000336      Node     3.24028     +0.26929220     -0.00538542

e   0.9984042      Incl.   51.18033     +0.95316293     +0.14447330

From 110 observations 2005 July 3-Sept. 18, mean residual 0".51.

